This demonstration page uses our WeatherBlox Daily Observations layout. Learn more.

Left ArrowRight Arrow

39.12711, -84.51439

Hourly Observations for October 1, 2020

Temp ( °F °C ) Dew Point ( °F °C ) Humidity (%) Winds ( mph kmh ) Pressure ( in mb ) Visibility ( mi km ) Precip ( " mm )
12:53 am 00:53 Clear 58 14.4 40 4.4 51 51 NW 5 7 29.97 1015 10 16 0.00 0.00
1:53 am 01:53 Clear 48 8.9 43 6.1 83 83 Calm 29.97 1015 10 16 0.00 0.00
2:53 am 02:53 Clear 46 7.8 43 6.1 89 89 Calm 29.98 1015 10 16 0.00 0.00
3:53 am 03:53 Clear 45 7.2 43 6.1 93 93 Calm 29.98 1015 10 16 0.00 0.00
4:53 am 04:53 Clear 44 6.7 42 5.6 93 93 Calm 29.98 1015 10 16 0.00 0.00
5:41 am 05:41 Clear with Mist and Fog 42 5.6 41 5 96 96 Calm 30.01 1016 1 2 0.00 0.00
5:53 am 05:53 Clear with Mist and Fog 43 6.1 42 5.6 97 97 Calm 29.98 1015 5 8 0.00 0.00
6:13 am 06:13 Clear with Mist and Fog 43 6.1 42 5.6 97 97 Calm 30.01 1016 2 3 0.00 0.00
6:29 am 06:29 Clear with Mist and Fog 43 6.1 41 5 93 93 Calm 30.01 1016 2 3 0.00 0.00
6:33 am 06:33 Clear with Mist and Fog 42 5.6 41 5 96 96 Calm 30.01 1016 3 5 0.00 0.00
6:39 am 06:39 Clear with Mist and Fog 42 5.6 41 5 96 96 Calm 30.02 1016 2 3 0.00 0.00
6:50 am 06:50 Clear with Mist and Fog 43 6 43 6 100 100 Calm 30.02 1016 1 1 0.00 0.00
6:53 am 06:53 Clear 42 5.6 42 5.6 100 100 Calm 29.99 1016 10 16 0.00 0.00
7:53 am 07:53 Mostly Sunny 43 6.1 42 5.6 97 97 Calm 30.00 1016 10 16 0.00 0.00
8:53 am 08:53 Sunny 49 9.4 47 8.3 93 93 Calm 30.01 1016 10 16 0.00 0.00
9:53 am 09:53 Sunny 58 14.4 47 8.3 67 67 Calm 30.01 1016 10 16 0.00 0.00
10:53 am 10:53 Sunny 63 17.2 44 6.7 50 50 W 7 11 30.01 1016 10 16 0.00 0.00
11:53 am 11:53 Sunny 66 18.9 41 5 40 40 W 8 13 30.01 1016 10 16 0.00 0.00
12:53 pm 12:53 Sunny 68 20 38 3.3 33 33 W 12 19 30.00 1016 10 16 0.00 0.00
1:53 pm 13:53 Mostly Cloudy 65 18.3 36 2.2 34 34 W 16 26 29.99 1016 10 16 0.00 0.00
2:53 pm 14:53 Cloudy with Light Rain 65 18.3 38 3.3 37 37 W 17 28 29.99 1016 10 16 0.00 0.00
3:53 pm 15:53 Mostly Cloudy 65 18.3 36 2.2 34 34 W 9 15 29.99 1016 10 16 0.00 0.00
4:53 pm 16:53 Mostly Cloudy with Light Rain 64 17.8 37 2.8 37 37 NW 18 30 30.01 1016 10 16 0.00 0.00
5:53 pm 17:53 Mostly Cloudy 60 15.6 41 5 50 50 NW 8 13 30.02 1017 10 16 0.00 0.00
6:53 pm 18:53 Partly Cloudy 60 15.6 38 3.3 44 44 NW 8 13 30.04 1017 10 16 0.00 0.00
7:45 pm 19:45 Mostly Cloudy 58 14.4 37 2.8 46 46 NW 17 28 30.06 1018 10 16 0.00 0.00
7:53 pm 19:53 Partly Cloudy 58 14.4 37 2.8 46 46 NW 17 28 30.06 1018 10 16 0.00 0.00
8:53 pm 20:53 Mostly Cloudy 57 13.9 37 2.8 47 47 NW 9 15 30.07 1018 10 16 0.00 0.00
9:53 pm 21:53 Partly Cloudy 54 12.2 38 3.3 55 55 NW 7 11 30.09 1019 10 16 0.00 0.00
10:53 pm 22:53 Clear 53 11.7 40 4.4 61 61 W 3 6 30.10 1019 10 16 0.00 0.00
11:53 pm 23:53 Clear 51 10.6 40 4.4 66 66 W 3 6 30.11 1020 10 16 0.00 0.00

Powered by AerisWeather